Location: Unspecified
(0.0000°N, 0.0000°E)
Time: 18:10:51
(UTC+02:00)

GP-B - Visible Passes

Search period start: 27 May 2016 00:00
Search period end: 06 June 2016 00:00
Orbit: 632 x 637 km, 89.9° (Epoch: 26 May)

Date Brightness Start Highest point End Pass type
(mag) Time Alt. Az. Time Alt. Az. Time Alt. Az.
27 May 6.0 05:14:49 10° ENE 05:16:47 13° E 05:17:17 13° ESE visible
27 May 4.2 06:50:12 10° NNW 06:53:49 25° W 06:54:43 23° WSW visible
28 May 4.8 05:34:49 10° NNE 05:38:37 29° E 05:38:37 29° E visible
28 May 5.1 07:14:48 10° WNW 07:15:42 11° W 07:16:03 10° W visible
29 May 3.4 05:56:08 10° N 06:00:00 63° NE 06:00:00 63° NE visible
30 May 3.7 06:18:10 10° NNW 06:21:25 39° NW 06:21:25 39° NW visible
31 May 6.1 05:04:35 10° NE 05:05:26 13° ENE 05:05:26 13° ENE visible
31 May 4.8 06:41:03 10° NW 06:42:52 17° WNW 06:42:52 17° WNW visible
01 Jun 5.3 05:25:04 10° NNE 05:26:56 22° NE 05:26:56 22° NE visible
02 Jun 4.9 05:46:35 10° N 05:48:26 25° N 05:48:26 25° N visible
03 Jun 5.1 06:08:49 10° NNW 06:09:58 17° NNW 06:09:58 17° NNW visible
05 Jun 6.0 05:15:24 10° NNE 05:15:41 12° NNE 05:15:41 12° NNE visible
